Wind_Speed
12 13 13 14 15 15 14 14 15 16 16 17 18 19 20 19 19 18 18 19 20 20 21 22 23 24 25 27 29 29 29 29 29 29 29 30 31 31 30 30 31 31 30 31 31 31 32 31 31 31 31 30 29 29 30 30 30 29 29 29 29 27 26 22 14 9 11 14 14 15 19 20 20 22 23 23 23 23 25 27 31 33 35 34 32
11 12 12 13 13 13 12 12 13 14 15 17 18 18 18 17 17 17 18 19 19 19 21 22 22 23 24 26 28 29 29 30 30 29 29 30 31 32 32 31 31 31 31 31 32 31 31 32 31 30 31 31 30 29 30 31 31 32 32 31 31 30 29 26 20 12 11 15 17 18 19 20 21 23 23 23 23 24 25 28 31 33 34 34 33
10 10 10 11 11 12 12 13 13 14 15 16 17 17 17 16 16 17 18 19 18 19 20 21 22 22 22 24 26 27 28 29 30 30 30 31 32 33 33 32 32 32 32 32 32 31 30 31 32 31 30 31 31 32 32 32 32 33 33 32 32 31 30 29 24 16 13 15 18 20 21 21 22 23 22 22 23 23 25 28 31 33 33 33 33
9 9 9 10 11 11 13 13 13 14 15 16 17 17 17 17 17 18 19 18 19 19 20 22 22 22 23 25 25 26 26 28 28 29 30 31 33 34 34 34 34 33 33 33 32 32 32 32 32 32 32 31 32 33 33 33 33 33 32 32 32 30 30 30 28 24 20 17 17 21 22 21 21 21 22 22 21 22 24 27 29 31 33 33 33
9 9 10 11 11 12 12 12 13 14 15 15 16 16 17 17 18 18 19 20 20 20 21 23 24 24 25 26 26 27 28 28 29 29 31 32 33 35 35 34 35 34 34 33 33 33 34 34 33 32 32 32 32 32 33 33 33 32 32 32 32 31 31 31 32 31 27 21 18 19 20 20 19 20 21 21 21 21 23 25 28 30 31 32 33
9 9 10 11 12 13 13 13 13 14 15 16 16 17 17 18 19 19 20 20 21 21 22 23 24 25 26 26 27 28 29 29 29 30 31 32 33 34 35 35 34 34 33 33 33 34 34 34 34 33 33 33 33 33 33 33 33 33 32 32 31 31 31 32 32 31 28 23 19 19 20 20 19 18 19 21 22 23 23 24 26 29 30 32 33
9 9 10 11 12 13 13 14 15 16 16 17 17 18 19 19 19 19 20 20 22 23 23 23 24 25 26 27 27 28 28 28 29 30 31 32 32 33 34 34 34 33 33 33 33 34 35 35 34 34 34 35 35 34 34 33 33 33 34 33 32 32 32 32 30 28 26 22 20 20 21 21 19 18 19 20 20 21 23 23 24 28 31 32 33
10 9 10 11 12 12 12 14 15 16 16 17 18 19 20 20 19 19 19 20 22 24 24 25 25 26 28 29 29 29 29 29 29 30 32 32 32 33 33 34 34 34 34 34 34 34 35 36 35 35 36 36 36 35 35 34 33 33 34 35 34 33 32 31 28 26 24 22 20 19 18 18 17 16 17 20 20 20 24 26 25 27 30 31 32
12 11 11 13 13 13 12 13 14 15 16 17 18 19 21 20 20 20 20 21 23 24 25 25 25 27 29 31 32 32 32 33 33 33 33 33 33 33 34 34 34 35 35 35 35 36 36 36 36 37 37 37 37 37 37 36 35 35 35 35 35 33 32 29 27 24 22 19 17 16 15 16 18 18 20 24 25 24 25 27 24 23 25 26 28
14 14 14 15 15 15 14 14 14 15 16 17 18 19 19 19 20 20 21 22 24 25 25 25 25 28 30 31 32 33 35 36 37 36 36 36 35 35 35 35 36 36 37 36 36 37 37 37 37 37 37 38 38 38 38 38 38 37 36 37 36 34 31 29 26 24 21 19 18 17 15 14 19 24 25 26 26 23 22 26 24 19 18 19 21
14 14 15 17 17 17 17 16 15 15 16 17 17 18 18 19 20 21 22 23 24 25 25 26 27 29 30 31 32 33 35 37 37 37 38 38 38 37 36 35 36 37 37 36 36 36 37 37 37 37 37 37 38 38 38 38 39 39 38 38 37 35 33 29 26 25 23 21 20 20 19 17 20 26 26 24 24 23 22 25 24 19 18 15 12
13 14 15 16 17 17 18 17 17 18 18 18 19 19 19 19 20 21 22 23 23 24 26 27 28 29 29 31 33 34 36 36 35 36 37 38 38 39 38 37 35 36 36 36 37 36 36 37 37 38 38 38 38 37 37 37 38 38 37 36 35 35 34 31 27 25 25 24 22 22 22 20 20 24 26 26 26 25 22 23 25 23 21 19 15
13 14 14 15 15 16 16 17 17 18 19 20 20 21 21 22 22 22 23 24 23 24 25 26 28 28 28 30 33 34 35 35 34 35 36 36 36 38 39 39 37 36 35 35 36 36 36 36 36 37 38 37 37 36 36 37 37 36 34 34 34 33 32 30 28 26 27 28 27 26 26 24 23 26 29 29 28 26 23 24 26 25 22 21 22
12 12 13 14 14 14 15 16 17 18 19 19 20 22 23 24 24 24 25 25 25 26 26 26 27 28 28 30 32 33 35 34 34 34 34 34 34 36 38 39 39 38 36 35 35 36 36 36 36 36 36 36 36 36 35 36 36 34 33 33 33 32 30 29 27 26 27 29 29 30 30 29 27 28 29 30 29 28 27 27 27 27 26 23 21
12 12 12 13 14 14 15 16 17 18 19 20 21 22 23 24 25 25 25 26 26 27 27 27 28 28 28 28 30 33 36 34 33 33 33 33 32 33 36 38 38 38 38 37 36 36 36 37 37 37 37 37 37 35 34 35 35 32 31 32 33 31 30 30 29 29 30 30 30 30 29 28 27 26 26 28 30 30 28 25 24 25 24 20 16
13 12 12 13 13 14 15 17 18 20 20 21 22 23 23 24 25 25 25 27 27 27 28 28 28 28 28 27 29 34 36 34 32 32 32 32 32 32 35 36 37 38 38 38 38 38 38 37 37 37 37 37 36 33 32 34 33 31 29 31 31 30 30 31 31 32 31 30 30 29 27 26 24 23 25 26 26 29 27 21 19 20 19 15 13
15 14 14 14 15 16 16 17 19 21 22 23 24 25 25 25 24 23 24 26 27 27 29 29 29 29 29 28 29 33 35 33 31 31 31 30 30 32 33 35 36 38 38 38 39 39 39 38 37 37 36 34 33 33 32 32 31 29 28 29 28 27 29 31 31 31 30 29 29 28 27 26 24 23 24 24 23 26 26 21 20 22 19 12 10
16 17 18 19 19 19 19 18 20 21 23 23 25 26 27 27 26 24 23 25 26 27 27 29 30 29 29 30 31 33 36 34 30 30 30 28 29 31 32 33 34 36 37 38 39 39 39 38 37 36 35 34 33 33 34 34 31 30 30 29 27 28 30 31 30 29 29 28 29 28 27 27 25 23 23 24 24 26 27 25 25 25 21 14 11
17 19 21 22 23 23 22 21 21 21 23 24 25 26 27 28 27 26 25 25 26 27 26 27 29 30 29 31 32 33 36 36 32 31 30 28 28 29 30 31 33 34 35 36 36 37 37 36 36 36 36 36 34 33 34 35 33 33 33 30 29 30 32 31 30 30 30 30 30 30 30 28 27 24 23 23 24 25 26 26 27 27 24 19 16
18 20 22 24 25 25 25 25 25 25 25 27 28 28 28 28 28 27 26 26 26 27 26 25 28 30 30 30 32 33 35 37 34 31 30 29 28 27 28 31 32 32 32 32 32 32 33 34 36 37 37 37 36 34 34 34 33 34 35 34 33 33 31 30 30 31 32 33 32 31 30 28 27 26 25 24 24 25 25 25 27 28 25 22 21
19 21 22 23 24 26 27 28 28 29 30 29 31 31 29 28 28 27 27 27 26 27 27 26 28 31 31 30 32 34 35 36 35 32 31 30 29 28 30 33 33 32 31 31 31 31 33 35 37 37 36 36 35 34 33 32 31 33 36 36 36 33 30 30 31 31 31 31 29 28 27 26 26 26 25 26 26 25 25 25 26 26 25 23 21
20 21 21 22 24 26 28 29 29 30 31 30 31 32 32 30 29 28 27 26 26 28 29 27 28 31 31 29 31 34 33 34 35 34 33 32 30 30 32 34 34 32 31 31 31 32 33 34 34 34 33 33 33 33 33 32 32 34 36 36 35 33 31 31 31 30 30 28 26 26 26 26 26 26 25 26 27 26 25 26 26 24 24 24 21
21 21 23 24 26 27 29 29 30 30 30 29 29 31 32 31 30 29 27 26 26 27 28 26 26 29 31 30 30 32 31 32 33 34 34 33 31 31 33 35 35 35 34 34 34 34 34 33 34 34 34 33 33 34 35 35 35 36 36 35 34 31 29 29 30 30 30 28 26 26 26 26 27 26 26 27 27 26 26 27 27 25 24 25 23
23 25 26 27 28 29 30 30 31 30 30 28 27 28 29 29 29 29 26 25 24 25 26 24 23 25 28 29 30 29 28 28 30 31 31 31 31 31 33 35 37 38 38 38 36 34 33 33 33 33 32 31 31 33 35 36 36 35 34 34 33 30 28 29 30 29 28 27 26 26 26 27 28 27 27 28 27 27 28 28 27 25 23 23 23
25 27 28 28 29 30 31 31 31 30 29 28 27 28 27 27 27 26 24 23 23 23 24 23 22 23 25 27 30 29 27 26 27 27 27 28 28 29 31 34 36 38 39 39 37 33 32 32 32 31 31 30 30 30 32 33 34 34 34 33 33 31 30 30 30 29 27 27 27 26 26 27 27 26 26 27 27 27 27 26 24 23 21 20 19
26 27 27 28 28 28 29 30 30 29 28 27 26 27 26 25 26 26 24 22 22 23 24 24 23 23 24 26 29 29 28 28 28 26 25 25 26 27 29 31 32 34 38 40 39 35 33 32 32 31 30 30 30 31 32 34 34 33 32 32 33 33 33 32 31 30 28 26 27 27 26 26 26 25 25 26 27 27 27 26 24 22 20 19 18
26 27 27 28 28 27 26 28 28 28 27 26 26 27 25 24 25 25 24 22 21 23 24 24 23 23 23 26 28 28 29 29 27 24 22 24 25 25 26 29 30 32 36 38 38 35 32 30 28 28 27 27 28 30 32 33 33 32 32 32 33 34 35 34 33 32 31 30 29 27 26 27 27 27 27 27 27 27 27 27 26 23 21 20 19
25 28 28 27 27 25 24 25 25 26 26 25 26 27 27 25 25 26 26 23 23 24 24 24 25 24 23 26 26 25 28 29 24 22 22 23 24 24 24 26 28 30 33 34 32 30 29 27 25 24 24 24 24 25 26 27 28 30 31 32 33 33 32 31 30 30 29 29 28 26 27 29 28 28 28 27 27 27 27 27 26 25 23 22 19
26 28 27 26 25 24 24 23 23 24 26 26 26 27 28 27 27 31 32 29 27 28 28 29 29 26 25 27 25 22 26 28 22 20 22 24 24 25 25 26 26 28 31 31 29 27 26 24 23 22 21 22 23 24 23 23 25 26 27 28 29 29 29 29 28 28 26 25 26 27 29 30 29 29 29 28 27 27 27 26 25 25 24 21 18
26 27 25 25 25 24 24 24 23 23 25 26 27 29 31 30 28 30 34 34 31 31 31 34 35 31 30 33 30 27 31 33 28 24 24 24 24 25 26 27 26 26 27 28 28 27 25 22 21 22 23 24 25 25 24 24 24 25 25 26 26 26 26 27 28 27 26 26 28 30 31 31 31 32 31 29 28 27 26 26 25 26 24 21 17
25 25 24 24 25 26 25 26 25 25 25 25 26 28 32 34 33 31 30 31 32 31 30 34 36 34 34 38 39 36 37 37 34 30 28 26 24 23 24 25 26 25 25 25 26 26 23 20 20 22 24 25 25 26 26 26 27 27 27 27 27 27 26 27 27 27 27 27 28 30 31 32 33 34 33 32 30 28 26 25 25 25 24 21 19
25 27 27 26 27 26 26 26 26 26 26 26 25 24 25 29 34 35 32 27 27 28 29 31 33 33 34 37 40 41 40 38 35 32 29 27 25 24 23 24 25 26 26 27 27 25 22 21 21 22 23 24 25 27 28 28 28 28 28 27 27 28 29 29 28 28 28 27 29 31 31 31 33 34 34 33 32 29 27 25 24 24 23 20 19
26 29 29 28 27 27 26 25 26 26 25 25 25 24 22 21 24 31 35 33 31 31 31 30 30 32 33 33 35 38 40 38 37 36 32 29 27 25 23 24 25 27 28 29 27 24 23 23 24 25 26 26 27 28 28 28 28 29 29 30 29 30 32 31 30 29 30 30 32 33 33 33 34 33 33 33 33 30 27 26 25 24 22 20 19
27 29 29 28 28 28 27 25 25 26 26 25 25 24 24 22 21 24 28 29 30 32 32 30 27 28 31 32 32 34 36 36 37 37 36 35 31 27 25 25 25 27 30 32 30 26 26 26 27 27 28 28 28 28 28 28 29 29 30 30 29 29 29 30 30 31 31 32 33 32 32 34 35 34 34 34 32 28 26 26 25 24 22 21 20
27 28 28 27 26 27 27 26 26 26 26 26 25 24 24 25 23 23 22 21 22 26 31 31 28 26 29 31 30 29 30 32 33 35 36 36 33 29 27 26 25 25 29 33 32 29 28 27 27 28 28 28 28 29 28 28 29 29 29 28 27 27 27 27 29 30 31 31 32 32 32 33 34 35 35 34 31 28 26 26 26 24 23 22 22
26 27 27 25 25 26 28 28 28 28 27 27 28 28 28 27 25 25 24 24 23 25 29 33 31 28 28 30 29 28 27 27 29 30 32 33 32 29 28 27 24 23 26 31 31 30 28 28 27 27 28 28 29 29 29 29 30 29 29 28 28 28 29 30 30 30 30 31 32 33 33 33 34 33 33 31 29 27 26 26 25 25 24 24 23
26 26 26 26 25 27 30 31 31 31 31 31 30 29 29 28 27 25 24 24 24 24 27 31 29 26 25 26 25 25 25 25 25 27 28 29 30 31 31 29 25 23 25 28 28 28 28 28 28 27 27 29 29 29 30 30 30 30 30 29 29 29 30 31 32 32 32 33 34 34 34 34 33 33 33 30 27 26 26 26 26 24 24 24 24
28 28 29 29 28 29 31 32 33 32 30 30 29 28 27 27 26 24 23 24 24 24 25 26 25 23 22 22 21 20 21 21 21 24 26 27 28 30 32 30 27 26 26 26 27 28 29 29 29 28 28 28 29 29 30 30 29 30 30 29 28 28 28 29 30 31 32 34 36 36 36 35 34 33 33 31 29 28 27 27 27 26 25 24 24
28 30 32 32 31 31 31 31 31 30 28 27 27 26 26 26 24 23 22 22 23 23 22 23 23 23 22 21 18 16 16 17 19 21 24 25 26 29 30 29 29 28 27 26 26 27 29 29 29 29 28 27 27 28 28 27 27 27 29 29 28 28 28 29 30 31 33 35 36 35 35 35 34 32 31 30 30 29 29 28 28 28 27 24 23
28 30 32 29 27 27 27 27 29 28 26 25 25 24 24 24 23 22 22 21 21 22 21 21 23 24 22 20 18 16 16 17 19 20 20 21 24 26 28 29 29 29 28 27 27 27 28 29 29 30 29 28 28 28 28 28 27 26 28 28 29 29 31 32 33 34 35 37 36 33 32 33 33 31 29 29 29 30 30 29 28 28 27 25 23
25 26 27 24 22 22 24 25 26 26 26 26 26 24 24 23 22 22 22 21 22 22 22 23 26 26 24 23 22 21 22 21 20 19 20 21 22 25 27 29 30 30 29 28 28 28 28 29 30 31 31 30 29 29 28 29 29 28 29 29 29 29 30 32 33 35 37 37 35 33 33 34 33 31 30 29 29 29 29 29 28 27 26 25 24
24 23 23 22 21 23 25 26 26 26 27 27 26 25 25 24 23 23 22 22 23 23 23 25 27 27 26 25 24 24 26 26 23 21 21 21 22 24 26 28 29 30 30 30 29 29 29 29 30 32 32 31 30 30 30 30 30 30 30 31 31 30 31 31 33 35 36 35 34 34 34 34 33 31 30 30 30 30 29 29 28 28 26 25 25
25 25 24 24 24 24 26 27 27 27 26 26 26 26 25 25 24 23 23 23 23 23 23 25 26 26 26 26 25 24 26 26 24 23 22 22 22 24 25 27 28 30 31 32 31 30 30 30 30 31 32 33 33 33 33 34 34 33 33 33 33 33 33 33 34 35 35 35 34 34 34 33 32 31 30 30 30 31 30 29 29 28 26 25 25
27 27 27 26 25 24 24 25 25 25 25 26 26 27 26 25 24 23 23 23 23 23 23 24 25 25 24 23 22 23 24 24 23 22 22 22 23 25 25 26 27 28 30 31 31 30 30 30 30 30 31 32 33 34 35 35 35 36 35 35 36 36 37 37 38 39 39 38 36 35 34 33 32 31 31 31 31 31 31 30 29 28 26 26 25
26 25 25 24 23 23 23 22 23 24 24 24 25 26 25 25 24 24 23 23 23 23 23 23 23 23 23 22 21 21 22 22 22 22 23 23 24 25 25 25 26 27 28 29 30 30 30 30 30 30 30 32 32 33 34 34 34 35 35 35 36 38 40 42 43 43 43 41 40 38 36 34 33 32 32 32 33 32 31 31 30 28 27 27 25
23 22 22 23 22 22 22 22 22 22 22 23 23 24 24 23 23 22 23 23 22 22 21 21 21 21 21 21 21 21 21 21 21 22 23 24 24 25 25 25 25 26 27 27 28 29 30 31 30 30 31 31 32 33 34 34 34 34 35 35 35 36 38 41 42 43 43 43 42 41 38 36 34 34 34 33 33 32 32 31 30 29 28 27 25
21 20 21 21 21 22 22 22 21 21 22 22 23 23 23 22 22 21 22 23 23 22 22 21 21 21 21 21 21 21 21 21 21 21 22 23 24 24 24 24 24 25 26 28 28 29 29 30 30 30 30 31 31 32 32 32 33 34 34 34 34 34 35 37 39 41 42 42 42 42 40 37 35 34 35 34 33 32 32 31 29 28 27 26 25
20 20 21 21 21 21 22 21 21 22 22 22 22 22 21 21 21 21 21 22 22 22 21 21 21 21 21 20 21 21 20 21 21 21 21 22 22 22 23 23 23 24 26 27 27 27 28 28 29 29 30 30 31 31 31 31 31 32 32 32 33 34 35 37 38 39 39 40 41 41 40 39 37 36 35 35 34 34 33 31 29 28 27 26 25
21 21 21 21 21 21 21 21 21 21 21 20 20 19 20 20 20 20 20 21 21 21 21 21 20 19 19 19 19 20 20 20 20 19 19 19 19 20 20 21 21 22 23 23 24 24 24 25 25 26 27 28 28 28 29 30 31 32 33 33 33 33 34 35 37 38 39 39 40 40 39 39 38 37 36 36 35 34 32 31 29 29 28 26 26
22 22 21 21 20 20 21 21 20 20 19 19 19 20 20 20 20 20 20 20 21 21 20 20 19 18 18 17 17 18 18 18 17 17 16 16 17 17 17 17 18 18 19 19 19 19 19 19 20 21 23 24 24 25 26 28 30 31 32 32 31 32 33 34 36 39 40 40 40 39 39 39 38 36 35 34 33 32 32 30 30 30 29 28 27
21 20 20 19 19 19 18 18 17 17 18 18 19 19 19 19 19 19 19 19 19 19 19 18 18 17 17 16 16 16 15 15 14 13 13 13 13 13 12 12 12 12 12 13 12 12 13 14 16 17 18 20 22 24 25 26 26 27 27 27 27 29 31 33 36 39 40 40 40 40 39 39 38 36 35 34 32 32 31 31 30 30 29 28 27
Wind_Direction
241 239 238 236 235 234 233 231 230 229 230 231 231 233 235 235 235 235 237 238 238 235 232 232 231 229 231 233 232 230 230 230 229 227 226 225 226 228 229 229 231 231 230 229 228 228 228 229 230 230 230 231 230 230 232 234 235 236 236 238 239 239 240 242 248 250 243 238 229 224 229 231 233 238 240 239 241 243 242 238 231 224 222 224 223
249 241 235 234 233 232 232 230 229 229 229 231 233 235 236 236 238 239 240 242 243 239 238 240 237 232 233 236 236 235 232 230 230 228 226 225 225 226 227 229 230 231 230 228 228 228 228 228 229 229 231 231 229 230 232 233 232 234 236 237 239 239 238 239 241 242 236 229 221 218 224 225 228 235 238 238 240 238 234 231 227 222 220 220 220
259 246 234 233 233 230 231 231 229 228 229 231 234 236 237 238 240 241 241 243 246 244 244 245 241 237 239 240 238 237 236 234 233 231 229 227 227 227 228 229 231 231 231 229 228 228 228 228 228 228 229 230 230 231 232 233 232 234 237 238 237 237 237 236 236 237 235 229 222 221 223 223 225 233 237 237 237 233 230 228 224 220 217 216 218
274 260 249 248 245 240 239 236 233 233 232 235 238 241 242 241 243 243 242 244 246 245 245 245 244 242 243 241 239 239 239 237 236 234 232 230 229 230 230 231 232 232 232 231 229 228 229 230 230 230 230 230 230 231 232 233 234 234 236 238 238 238 238 238 238 239 238 232 222 222 224 222 222 228 229 227 226 226 227 226 222 219 217 215 217
299 283 275 269 262 257 252 244 240 239 238 242 246 247 247 247 247 246 246 249 250 247 245 244 244 244 243 240 239 240 238 237 237 236 234 233 233 232 232 232 232 233 233 233 231 230 230 232 232 230 228 228 229 231 232 234 235 236 237 237 238 239 238 238 239 238 236 229 215 214 218 217 217 222 222 218 215 215 218 221 220 218 217 216 218
317 301 289 280 274 268 261 253 250 249 249 251 254 254 253 253 252 250 251 254 253 251 248 246 244 244 243 240 238 239 239 237 236 235 235 236 235 234 233 233 234 234 234 234 233 232 232 233 233 231 229 229 231 233 234 236 236 236 236 236 237 238 237 237 237 235 233 227 215 209 211 212 213 213 214 214 212 207 205 211 218 220 219 218 218
328 312 296 284 278 273 267 265 264 263 262 262 263 262 258 255 253 254 255 255 255 255 252 250 247 245 244 242 240 239 239 238 237 236 236 235 235 236 235 235 235 235 235 235 235 235 235 235 235 233 232 232 233 234 235 235 235 236 237 238 238 238 237 237 235 233 230 223 213 209 209 209 209 208 206 207 209 209 204 202 211 219 220 220 220
337 322 306 291 284 279 274 271 269 269 267 266 267 266 263 259 258 259 258 256 257 259 258 255 251 247 246 245 244 242 241 241 240 238 237 236 235 236 237 237 237 237 238 238 239 239 239 239 238 236 235 235 236 237 236 235 235 235 237 239 239 237 236 234 232 231 227 218 210 207 202 198 199 199 196 193 197 209 211 208 212 218 219 221 223
339 329 316 305 301 296 289 283 277 275 273 269 268 267 266 266 265 265 263 262 263 264 262 258 253 249 248 247 247 245 243 242 242 239 238 238 238 238 239 239 239 240 241 242 243 243 242 241 240 239 239 239 240 240 240 239 238 237 238 240 239 235 232 230 228 224 219 213 208 201 192 190 191 187 187 192 200 210 213 212 217 224 221 221 224
340 332 324 319 317 312 306 301 294 289 285 281 278 276 274 274 273 272 271 271 273 272 268 262 256 253 252 251 250 248 246 245 244 243 242 242 241 241 242 242 242 242 243 243 244 243 242 242 242 241 242 243 243 243 243 244 244 243 244 244 241 235 229 224 220 215 211 208 204 196 190 196 199 197 199 205 209 211 209 207 212 219 215 216 228
345 337 330 328 326 322 318 315 309 304 300 295 291 288 285 284 282 282 281 280 279 278 273 267 262 258 255 253 252 251 250 249 248 247 246 245 244 244 244 244 244 243 243 242 243 243 242 242 242 242 243 244 243 244 244 245 246 246 246 245 244 241 234 223 215 211 209 208 207 203 200 205 208 207 209 211 210 210 209 207 206 203 200 204 221
351 345 339 335 332 328 326 323 319 315 311 306 302 298 294 291 289 288 287 286 285 281 275 271 267 263 258 255 254 253 252 253 251 250 249 248 247 246 246 246 245 245 243 242 243 243 242 243 243 243 243 244 243 243 244 246 246 246 245 244 244 244 240 232 224 219 214 211 209 207 209 210 210 211 212 213 212 209 208 208 205 202 204 207 210
357 354 350 346 341 336 333 329 323 319 315 311 306 302 299 297 296 295 293 292 289 283 279 276 272 266 260 257 256 256 256 255 254 254 253 251 250 249 248 248 247 247 246 244 244 243 242 242 243 244 244 243 243 244 245 247 246 244 243 241 239 240 239 235 235 235 229 220 212 213 217 214 213 220 223 219 211 202 199 203 206 204 208 216 220
2 359 356 353 349 344 339 333 326 322 319 315 310 305 303 301 301 301 299 296 292 287 284 280 276 270 263 259 258 258 258 257 256 255 255 254 253 252 251 251 250 250 250 248 247 245 244 243 244 245 246 245 243 243 244 245 242 239 238 235 233 234 234 233 233 234 232 226 222 224 226 223 224 232 233 224 214 207 204 206 210 210 212 220 225
357 356 352 349 347 343 338 332 326 324 322 318 313 308 306 305 305 305 302 297 293 290 287 283 280 275 268 261 259 259 259 258 256 255 255 254 254 254 253 253 252 253 252 251 250 249 248 247 246 246 248 246 244 244 245 243 238 234 234 232 229 228 230 233 232 229 227 227 228 230 232 231 232 235 236 230 224 221 220 221 222 218 214 216 220
349 347 342 340 339 336 332 328 323 322 319 315 312 309 308 306 305 305 301 297 294 292 289 287 284 280 274 266 260 261 263 261 257 255 253 252 253 253 253 253 253 253 254 253 252 252 251 249 248 247 246 245 243 244 246 242 234 230 230 229 226 226 229 232 232 230 227 227 229 231 232 233 232 232 234 234 229 223 220 220 220 211 203 204 212
346 343 338 336 334 331 329 325 321 319 316 313 311 310 309 305 303 302 298 295 294 292 290 290 288 283 277 270 262 262 265 264 259 256 253 250 250 250 250 251 252 253 254 254 253 253 252 251 249 246 244 244 244 246 244 236 229 229 229 227 224 225 227 229 228 226 225 226 228 229 230 229 228 227 228 231 229 220 210 203 202 197 191 194 204
344 341 337 334 332 330 328 324 320 317 315 312 310 309 307 303 301 299 294 291 291 290 290 290 288 283 278 273 267 265 267 267 262 258 253 248 246 246 247 250 251 252 254 254 254 253 252 251 249 246 245 246 248 247 239 228 225 228 227 221 218 218 222 223 220 219 220 223 225 225 226 225 223 220 221 223 225 221 213 209 205 196 189 196 201
339 335 332 332 330 329 327 324 321 318 314 312 310 307 305 303 301 297 292 288 288 288 288 286 285 282 278 275 272 269 269 270 266 260 256 250 245 244 245 246 248 251 253 254 254 253 250 249 248 246 247 248 249 245 235 225 225 228 224 215 210 214 219 219 216 216 217 219 221 221 220 220 217 214 214 217 221 223 222 220 212 200 194 199 198
333 331 329 329 328 327 327 324 322 320 317 316 314 311 308 306 303 299 293 288 286 284 283 281 281 281 278 276 274 270 269 270 269 265 261 256 249 245 243 240 241 245 249 250 252 252 251 250 249 248 247 245 243 240 233 229 229 227 221 214 213 217 220 219 218 218 219 218 218 217 215 215 213 211 210 211 216 219 221 220 216 211 206 201 198
327 328 327 326 325 324 324 323 322 322 321 319 317 315 313 309 305 301 296 291 287 284 281 278 277 279 278 275 273 271 268 268 269 267 263 259 253 247 243 241 240 242 245 249 250 251 251 250 248 246 243 241 237 233 231 232 234 230 224 221 224 226 224 221 219 218 216 215 212 210 209 209 208 208 208 208 211 214 213 214 216 218 214 207 203
325 325 324 323 321 320 321 322 321 321 322 321 318 316 315 314 309 304 299 293 288 284 283 280 277 278 277 274 272 271 269 267 267 266 262 258 254 249 245 245 244 242 243 245 246 246 247 246 246 245 242 240 238 236 235 236 235 232 230 230 229 227 224 221 217 213 210 207 203 202 202 202 201 203 204 205 208 209 207 208 212 214 215 212 211
324 322 321 321 320 320 321 321 321 320 320 320 317 314 314 314 311 306 301 295 290 287 285 284 281 280 279 277 273 271 269 267 266 265 263 259 254 250 247 247 247 245 242 242 243 243 244 245 246 247 245 243 243 242 239 236 232 231 233 231 226 222 219 216 211 205 201 198 197 198 199 198 197 198 200 202 203 203 203 206 209 211 212 212 213
322 320 321 321 321 322 322 321 321 320 320 320 316 312 312 312 309 304 298 291 286 285 284 284 281 280 282 282 279 276 273 272 270 268 266 263 258 254 249 245 245 245 244 244 245 244 244 245 246 245 243 243 245 243 239 234 231 231 231 228 222 218 214 209 203 197 193 192 194 197 198 198 196 197 199 199 199 199 201 204 207 210 212 212 214
321 320 321 321 320 321 320 319 320 320 320 320 316 310 309 308 304 301 295 286 279 276 278 279 276 276 279 282 283 284 282 280 277 272 269 267 263 260 256 250 245 245 247 248 247 245 245 247 247 246 245 245 245 245 243 239 235 231 227 221 216 212 209 204 197 192 191 192 195 198 199 198 197 198 198 197 196 196 197 198 201 205 207 207 208
319 319 319 318 318 318 316 316 318 318 317 317 313 308 305 302 298 296 291 282 275 272 273 274 273 272 274 276 280 285 285 282 279 276 273 270 267 264 263 259 253 248 249 250 250 248 248 248 247 247 245 244 242 243 244 243 238 231 223 217 212 209 207 203 197 193 193 194 196 198 198 196 194 194 194 193 192 193 193 192 191 191 194 194 187
318 317 317 316 315 314 313 312 313 313 313 313 311 307 303 298 293 289 285 280 277 274 272 271 270 269 272 276 280 283 283 282 280 278 275 272 269 267 264 262 257 250 247 248 248 247 246 245 245 243 240 240 241 240 238 236 231 225 220 216 213 211 209 206 202 199 198 198 197 196 194 191 188 186 186 186 187 188 190 189 185 180 181 182 174
317 314 314 313 311 309 308 307 307 308 308 308 307 303 301 299 293 287 282 277 274 274 274 272 271 271 273 277 281 283 283 281 280 281 280 275 271 267 263 260 256 249 245 244 245 246 245 243 239 235 230 230 231 229 227 225 223 220 217 214 213 212 209 206 205 204 203 199 193 188 184 183 181 179 179 180 181 182 184 185 182 177 175 174 166
315 312 312 310 308 307 306 304 304 303 303 302 300 297 294 293 291 289 287 281 273 272 273 273 274 276 275 275 276 277 278 280 282 285 286 283 277 271 266 261 258 253 247 244 241 241 240 234 226 218 213 212 213 213 215 217 218 218 217 214 213 211 207 204 203 203 202 194 184 179 178 177 177 175 174 175 176 178 179 180 180 176 174 173 166
311 310 310 308 306 306 306 304 303 302 300 300 300 299 297 294 289 287 288 288 282 276 273 273 275 276 275 274 273 269 271 277 283 286 285 283 281 277 272 266 262 257 250 242 234 230 227 221 214 206 202 202 203 204 206 208 210 213 214 214 213 211 209 207 204 202 200 192 185 182 180 177 175 174 173 172 172 173 174 178 179 176 173 170 163
309 307 308 307 306 306 305 304 303 303 301 300 300 302 303 302 299 292 288 289 289 284 279 277 278 276 272 272 274 273 273 276 280 281 279 277 276 275 273 268 262 255 246 233 224 222 220 215 212 208 204 203 204 203 204 204 206 207 207 209 211 211 210 209 207 203 199 193 188 185 183 179 177 176 175 173 170 168 170 175 177 176 175 172 163
307 305 305 305 306 305 303 301 301 301 301 300 300 300 301 303 304 303 300 296 292 289 285 283 282 278 274 271 272 273 274 275 276 275 274 272 270 269 269 266 262 255 243 228 222 223 220 214 215 214 209 208 208 207 205 205 205 204 203 204 207 208 209 210 209 204 199 194 189 186 185 182 179 177 176 173 168 165 167 171 173 174 174 172 165
303 301 302 304 304 303 301 300 299 298 298 298 298 297 296 295 299 303 304 302 299 294 290 286 283 281 278 273 271 272 273 274 274 272 270 268 266 265 263 262 261 255 239 223 219 224 222 218 220 219 215 214 213 209 207 207 205 204 204 205 205 207 209 210 207 203 201 198 193 189 188 186 181 176 173 172 169 166 167 169 170 171 171 168 163
300 297 297 299 300 300 299 299 298 298 297 296 294 292 290 288 287 291 297 301 303 301 297 292 287 283 280 277 274 273 273 273 272 271 268 265 262 261 259 257 256 251 239 226 221 223 220 219 221 220 218 217 215 210 208 207 205 205 206 206 206 207 207 207 204 201 200 197 193 190 188 185 181 175 170 170 169 167 167 168 169 170 169 166 162
296 294 294 295 295 295 296 296 297 297 296 295 293 290 288 287 285 282 283 286 292 294 294 292 289 286 283 281 278 276 274 273 271 271 269 265 261 257 253 248 242 238 234 231 229 228 224 222 223 221 219 218 215 212 210 208 206 206 206 204 204 203 201 201 201 201 198 194 191 188 185 183 181 178 173 171 170 168 168 169 170 171 170 166 162
293 292 293 293 293 293 293 293 294 293 291 290 289 288 286 283 281 279 278 276 276 279 283 286 288 287 283 280 278 277 275 272 271 270 268 265 260 251 242 238 233 228 229 231 233 235 234 232 229 225 222 220 217 215 212 209 207 207 205 203 202 200 197 197 198 198 197 194 190 187 184 182 180 178 174 172 173 171 169 169 170 171 170 166 162
290 290 290 291 293 293 291 291 291 289 288 287 285 284 283 280 278 277 276 273 272 272 276 281 286 287 283 278 275 274 273 272 271 269 267 265 258 246 238 238 237 232 230 230 231 235 238 239 236 232 227 223 220 217 214 211 208 205 204 203 202 200 198 197 196 195 194 192 189 188 185 182 180 178 175 172 171 170 169 168 167 167 167 165 161
287 287 288 290 293 292 290 290 289 288 286 284 281 280 279 278 277 275 273 272 272 271 273 277 279 279 278 278 277 274 273 271 267 262 259 257 250 242 239 242 241 236 234 231 229 231 236 239 239 237 233 228 223 218 215 211 207 202 200 199 200 200 200 197 195 194 193 190 189 189 187 184 180 179 177 172 168 167 168 167 165 162 162 162 162
290 289 290 292 292 290 288 288 287 287 285 282 280 279 277 275 275 273 271 271 271 270 272 274 274 272 274 276 274 267 261 254 249 248 249 246 242 239 239 242 242 240 238 234 229 229 233 236 237 237 236 232 227 221 216 212 206 201 198 196 195 196 196 193 192 193 191 189 187 187 186 183 181 180 177 173 168 166 166 166 165 163 161 162 163
294 293 293 293 291 288 286 285 284 283 281 279 278 277 274 272 272 271 271 270 271 271 272 272 271 272 272 271 266 257 249 244 243 244 244 242 240 239 239 240 241 242 241 237 232 230 231 233 234 234 233 231 227 222 216 211 206 201 198 196 194 194 194 193 192 191 189 187 185 184 183 182 180 177 175 173 169 167 166 165 165 164 162 160 159
293 291 291 292 290 288 287 284 281 281 280 278 276 274 273 272 272 272 272 271 271 273 273 270 270 272 271 268 264 258 254 252 251 248 245 244 243 241 240 240 241 242 241 240 236 232 231 231 231 231 231 229 225 221 215 210 206 201 198 196 196 195 195 195 193 189 186 184 184 184 183 182 178 176 174 171 168 166 164 162 161 162 161 159 157
290 288 288 288 288 287 286 283 282 282 281 278 275 273 273 273 273 271 270 269 269 271 271 270 271 272 271 268 266 260 255 254 253 250 247 246 245 245 244 243 243 243 243 242 240 237 234 231 229 229 228 226 222 218 213 209 206 202 198 196 195 193 193 193 191 188 184 182 183 183 183 181 178 175 172 169 166 164 161 159 159 160 159 158 157
289 287 285 284 283 281 279 280 280 279 278 277 277 275 274 274 272 271 269 268 267 267 267 269 271 272 270 269 266 261 255 252 251 249 248 247 247 248 247 246 245 244 244 244 243 241 238 234 231 229 227 225 222 218 215 212 208 204 200 197 194 192 191 189 187 184 181 181 181 182 181 179 177 173 169 167 166 162 159 157 158 159 159 158 158
286 285 283 281 279 275 273 272 273 273 273 273 275 274 273 272 271 270 268 267 267 266 265 267 269 271 271 269 265 259 254 251 249 248 248 249 250 251 250 249 248 246 245 245 244 243 240 237 234 230 227 225 223 221 219 216 213 208 203 199 194 191 189 187 184 182 180 179 178 178 178 177 175 171 169 168 166 161 157 157 158 158 158 158 157
282 280 278 277 276 274 271 269 268 269 271 272 272 271 269 268 266 265 264 264 265 265 265 265 267 268 269 269 265 260 256 253 250 248 249 251 253 254 254 252 251 249 247 246 244 241 239 236 233 228 225 223 222 220 220 219 216 212 208 203 198 195 192 190 187 184 181 178 176 175 174 174 172 170 170 169 166 161 157 158 159 158 158 159 158
278 274 272 272 272 271 270 270 268 267 267 268 267 267 266 264 263 262 262 262 262 263 264 265 267 268 269 268 266 262 259 256 251 249 250 253 255 257 257 255 253 251 249 246 243 240 237 235 231 227 224 222 220 220 220 219 216 213 210 207 205 201 195 191 187 183 181 179 176 173 170 169 169 170 170 167 164 160 157 158 160 160 159 160 160
277 275 273 272 272 271 271 271 270 269 267 266 265 265 265 264 263 263 263 264 264 265 266 266 266 267 267 268 266 264 262 259 255 253 253 255 257 259 259 257 254 252 249 247 244 240 237 233 230 226 224 223 220 219 219 218 215 211 208 207 205 201 195 189 185 182 181 179 176 171 167 165 165 167 166 163 158 156 155 157 159 161 161 161 160
279 278 276 274 274 274 274 274 273 271 269 267 265 263 263 263 264 264 264 264 265 265 265 265 265 264 264 264 265 266 265 263 260 258 259 259 260 260 260 257 255 252 248 245 242 238 235 231 228 225 223 223 221 219 217 214 210 207 205 203 201 198 193 188 183 180 177 176 173 169 165 163 162 162 161 158 156 155 156 157 159 161 161 160 159
278 276 274 273 272 272 272 273 273 272 272 272 272 271 270 270 269 268 267 266 265 265 264 264 265 264 264 265 266 267 266 263 261 261 262 261 260 260 258 255 252 248 244 240 236 232 229 227 224 221 220 220 219 218 214 210 206 203 201 199 198 196 192 187 182 178 175 172 169 165 163 161 160 159 158 157 157 157 157 158 160 161 160 158 158
275 272 270 269 269 269 270 271 272 274 276 278 278 277 277 276 274 273 273 271 269 268 267 267 268 268 267 267 268 268 267 263 260 261 260 258 258 257 254 249 245 241 236 230 225 221 218 216 214 212 211 211 209 207 205 204 203 202 199 196 194 192 189 185 181 177 173 168 164 162 161 159 157 156 156 156 157 157 157 158 159 160 159 158 158
275 274 274 274 274 275 276 277 278 279 281 281 281 282 282 281 280 279 279 278 276 275 274 274 274 273 271 269 269 268 266 262 260 259 256 253 253 251 245 238 232 225 216 207 201 195 192 191 192 193 195 196 195 194 194 195 196 195 194 192 189 187 184 180 176 172 169 165 162 160 160 158 156 155 155 156 156 157 158 158 159 159 158 158 158
Height
727 728 729 730 730 731 732 733 734 736 737 738 738 738 739 740 742 743 744 745 746 747 747 747 747 748 748 749 749 750 751 752 752 753 754 755 756 757 757 758 757 757 757 757 758 758 758 759 759 760 762 762 763 764 765 767 768 769 770 770 770 771 772 772 771 770 772 773 773 774 774 775 776 776 776 777 778 779 780 781 782 782 781 783 788
724 725 726 727 728 729 730 731 732 733 734 735 735 736 737 738 740 741 741 742 743 744 744 744 745 745 746 746 746 746 747 747 748 749 749 750 751 751 752 752 753 753 753 753 753 754 754 755 755 756 758 758 759 760 761 762 764 764 765 766 766 766 768 768 768 768 768 769 770 770 771 771 772 772 773 774 775 776 776 777 778 779 778 778 781
722 723 724 725 725 726 727 728 729 730 731 732 732 733 735 736 737 737 738 739 740 741 742 742 743 742 743 743 743 743 743 744 744 745 745 745 746 746 747 747 748 748 748 747 748 750 750 750 751 752 754 754 755 756 757 758 759 759 760 761 761 762 763 764 764 764 765 765 766 767 767 767 768 768 770 771 772 773 774 775 776 777 776 775 776
721 721 722 723 724 724 725 726 727 727 728 729 730 731 732 732 733 734 734 735 736 737 738 738 739 739 739 739 740 740 740 741 741 741 741 741 741 741 742 742 742 742 742 743 744 745 745 745 746 748 749 750 750 751 752 753 754 754 755 756 757 757 759 760 760 761 761 761 762 763 764 764 765 766 767 768 769 771 772 774 776 777 775 773 773
720 720 721 722 722 723 724 724 725 725 726 727 727 728 729 730 730 731 731 732 732 733 733 734 734 735 734 735 735 736 736 736 737 737 737 737 737 737 737 737 737 737 738 739 739 740 740 741 742 743 745 745 745 747 748 749 750 750 751 752 753 754 755 756 756 757 757 757 758 760 761 761 762 763 764 765 767 768 770 772 774 776 775 773 773
719 719 720 720 721 721 722 723 723 724 724 725 726 726 727 727 728 728 728 729 728 729 729 729 730 730 730 730 731 730 730 731 731 731 732 733 732 733 733 733 733 733 734 734 735 735 736 736 737 739 739 740 740 742 743 744 745 746 747 748 749 750 751 751 752 753 753 753 754 756 757 758 759 760 762 763 764 765 767 770 773 774 774 773 772
718 718 718 718 719 719 720 720 721 721 722 722 723 723 724 725 725 725 726 725 725 725 725 725 726 726 726 726 726 726 726 727 727 727 727 728 728 728 729 729 729 729 729 730 730 731 731 732 732 733 734 735 735 737 738 740 740 741 742 744 745 746 747 747 748 749 750 750 751 752 753 755 757 758 759 762 764 764 765 767 770 770 770 770 770
718 718 718 717 717 717 718 718 718 718 719 719 719 720 720 721 721 722 722 722 721 721 720 721 721 721 721 721 721 722 723 722 722 722 722 723 723 724 724 725 725 725 725 725 726 726 726 727 727 728 729 729 730 732 733 735 736 736 738 739 741 742 742 743 744 746 747 748 748 749 750 753 755 756 758 760 762 762 762 764 765 766 766 767 768
717 717 717 717 717 717 717 717 716 716 716 716 716 716 716 717 717 717 717 717 717 716 716 716 716 716 716 716 716 717 717 717 717 717 718 719 719 719 720 720 720 720 720 720 721 721 721 721 722 723 724 725 726 727 728 730 731 731 733 735 736 737 737 739 740 742 744 746 747 748 749 751 752 753 754 755 755 756 758 761 763 764 765 765 766
717 717 717 716 717 717 716 716 715 715 715 715 714 714 714 714 713 713 713 713 712 712 712 712 712 712 711 711 712 712 711 711 711 712 713 714 715 716 716 716 716 716 716 715 715 715 716 716 717 718 719 720 722 723 724 725 726 727 728 729 730 731 733 734 735 737 740 742 744 745 747 747 748 748 749 749 750 752 755 758 761 763 764 764 764
716 716 716 716 716 716 715 715 715 714 714 714 713 712 712 711 710 710 709 708 708 708 707 707 707 707 707 707 707 707 706 706 707 708 709 710 711 712 712 712 711 711 711 710 710 710 711 711 712 713 715 716 717 718 719 720 721 722 723 724 725 727 728 729 730 732 735 737 739 741 742 742 743 744 746 747 749 750 751 754 757 760 761 761 761
714 714 715 715 715 715 714 714 713 713 713 713 712 711 710 708 707 706 705 704 704 703 703 702 702 702 703 702 702 701 700 701 703 704 705 706 707 708 708 708 707 707 706 706 705 706 706 707 708 709 710 711 712 713 714 715 716 717 718 719 721 722 722 724 726 728 730 732 735 736 737 738 740 741 742 743 744 746 749 751 753 755 756 757 757
713 713 713 714 713 713 713 713 712 712 711 711 711 709 708 706 705 704 703 702 701 699 698 698 697 697 697 697 697 696 696 697 699 700 700 702 704 704 704 703 703 703 702 702 701 702 702 703 703 704 705 706 708 709 710 711 712 713 714 715 716 717 719 720 721 723 725 727 729 731 732 734 735 735 737 739 741 743 746 748 749 751 752 753 753
712 711 711 711 711 712 712 711 711 710 709 709 708 707 706 705 703 702 701 699 698 696 695 694 693 692 692 691 691 691 691 693 694 695 697 698 700 701 700 700 699 699 698 698 698 698 698 699 699 700 701 702 703 704 706 706 707 708 709 710 711 712 715 716 718 719 721 722 724 725 727 728 729 730 732 735 737 739 740 742 744 746 748 749 751
711 711 710 710 710 710 710 709 709 708 707 707 706 704 704 702 701 700 699 697 696 694 693 692 690 689 688 688 687 685 685 687 689 691 692 694 695 697 696 696 695 694 694 694 694 694 694 695 695 696 697 698 699 700 701 702 703 703 704 705 706 707 709 711 713 715 716 717 719 721 723 724 725 727 729 731 733 735 736 738 739 742 745 747 750
711 711 710 710 710 709 709 708 707 706 705 704 703 701 700 699 698 697 696 694 693 692 691 690 688 687 685 685 683 680 679 681 684 685 686 688 690 691 691 691 690 689 689 689 689 689 690 690 691 691 692 693 694 696 697 698 699 699 699 701 702 703 705 707 709 710 712 714 716 718 719 721 722 724 726 728 730 733 735 737 738 740 743 746 748
711 710 710 710 709 709 708 707 705 704 704 703 701 699 698 696 695 694 692 691 690 689 688 687 686 685 683 682 681 677 674 676 678 678 680 683 684 685 686 686 685 684 684 684 685 685 685 686 686 687 687 688 690 692 693 694 694 695 696 698 699 700 701 703 705 707 709 711 713 715 716 717 718 720 722 725 728 730 733 734 735 737 740 743 745
711 710 709 708 708 707 707 706 705 703 702 701 700 698 696 695 693 691 689 687 685 685 684 683 682 682 681 680 679 676 672 671 673 673 674 677 679 679 680 681 680 679 679 679 680 680 680 681 682 683 683 684 686 687 689 689 689 691 692 694 695 696 696 699 701 703 706 708 709 711 713 714 715 716 718 721 724 726 728 729 730 733 736 739 741
711 710 709 708 707 706 705 704 703 702 700 699 698 697 695 693 691 690 688 685 682 681 680 679 678 677 677 677 676 675 671 669 670 670 670 672 674 674 675 676 675 674 675 675 675 676 676 677 678 679 679 680 682 683 684 684 684 686 688 690 691 690 691 694 697 699 701 702 704 706 708 710 712 713 715 717 720 722 724 726 727 729 731 734 737
711 710 709 707 706 704 703 702 701 699 698 696 695 693 692 690 689 688 686 683 681 678 677 676 673 672 672 672 671 671 669 667 668 668 668 669 670 670 671 670 669 669 670 671 671 672 672 673 674 675 675 676 677 678 680 680 680 682 683 684 684 685 687 691 693 694 696 697 699 701 704 707 709 710 711 713 716 719 721 724 725 726 727 730 732
710 709 708 706 705 703 702 700 698 697 695 693 691 689 688 688 686 685 683 682 679 677 674 673 670 667 666 667 666 665 664 664 664 665 666 666 666 667 666 665 664 666 666 667 667 667 667 668 669 671 672 673 674 675 676 676 677 678 679 679 680 682 685 687 689 691 693 694 696 699 701 703 705 706 707 709 711 714 718 720 722 723 725 726 728
708 707 706 705 703 702 700 698 697 695 693 691 689 686 685 685 683 682 681 679 677 675 673 671 669 664 662 661 660 659 659 659 659 659 660 660 662 663 663 661 662 663 663 661 661 661 662 663 665 667 670 671 672 673 673 674 674 675 675 677 679 680 682 683 685 687 689 692 694 696 698 700 702 703 704 706 708 711 714 717 719 721 723 724 726
705 704 703 702 701 699 697 695 694 692 690 689 687 684 682 682 680 679 679 677 674 673 671 670 669 664 660 657 655 653 653 653 653 653 654 656 657 658 658 658 660 660 658 656 655 656 657 658 660 662 666 668 669 670 671 671 671 671 672 675 677 678 679 681 682 683 685 688 691 693 694 696 697 699 701 703 705 708 711 714 717 719 720 722 724
702 701 700 699 697 696 694 692 691 689 688 687 685 683 681 680 678 677 676 675 673 671 669 669 668 665 660 656 652 651 650 649 649 649 650 651 652 653 652 653 654 655 654 651 651 652 653 654 656 658 660 663 665 667 668 668 668 668 670 672 674 676 677 677 678 680 682 684 686 688 690 691 693 695 698 700 703 706 708 711 715 717 719 721 722
699 698 697 696 694 693 691 689 688 687 685 685 683 681 680 679 677 675 675 674 673 670 668 667 665 663 659 655 651 649 650 649 647 646 645 646 646 647 647 647 648 650 650 649 649 650 650 651 653 655 657 659 662 663 665 665 666 667 668 668 670 671 673 674 675 677 678 680 681 684 686 688 690 692 695 698 700 703 705 709 712 715 717 719 721
696 695 694 693 692 691 688 686 684 684 683 683 681 680 679 677 675 674 673 672 671 669 666 664 662 659 656 652 649 647 647 646 645 644 644 642 641 643 644 644 645 647 648 647 647 648 648 649 650 652 653 656 658 659 661 662 664 665 666 666 666 666 668 669 670 671 673 675 677 680 683 685 687 689 692 695 698 700 702 706 710 713 715 717 719
693 692 692 691 690 689 687 684 682 681 680 680 679 678 677 676 674 672 670 670 669 666 664 661 659 656 653 650 647 644 642 640 641 642 642 640 638 639 641 642 643 644 643 643 645 646 646 646 647 648 650 652 654 656 657 659 660 662 662 663 663 663 663 664 666 667 669 671 673 676 680 682 684 686 689 692 695 697 700 703 707 710 713 715 717
692 690 690 689 688 687 685 683 681 679 677 677 676 675 673 673 672 669 667 668 666 663 660 658 654 653 651 648 645 642 637 635 637 638 639 638 638 637 637 639 640 641 640 640 642 644 644 644 644 644 645 648 650 652 654 656 657 658 659 660 660 661 661 662 664 665 667 668 670 673 676 678 681 683 686 689 692 694 697 701 705 708 711 714 715
691 689 688 687 686 685 683 681 679 677 675 673 673 671 670 669 668 663 661 662 662 659 657 653 650 651 649 646 644 641 635 631 633 636 635 635 636 636 635 636 637 638 638 639 640 642 642 641 640 639 640 642 645 647 649 652 654 656 657 658 659 660 660 660 661 663 665 666 667 670 673 676 678 681 683 685 688 691 695 699 702 706 710 712 713
689 688 687 686 684 682 680 678 677 676 673 671 668 666 663 663 663 659 655 655 655 655 653 649 646 648 647 642 641 639 633 629 631 633 632 632 633 633 634 635 634 634 635 637 638 638 638 638 637 636 636 637 638 640 643 646 649 651 654 656 658 658 659 659 659 660 663 664 664 667 670 672 674 676 679 681 685 688 692 696 700 704 707 710 711
687 685 684 683 682 680 678 675 674 672 671 668 666 663 657 653 652 652 651 649 647 647 646 644 642 643 643 638 635 634 631 629 630 630 629 628 629 630 631 633 633 632 632 634 634 633 633 634 635 633 632 632 632 633 636 638 641 644 647 651 653 655 656 657 658 659 661 661 662 664 667 669 670 672 674 677 680 684 689 693 697 701 704 707 708
686 682 681 680 679 677 676 673 671 669 667 665 664 662 658 652 645 642 642 643 642 640 639 638 637 637 637 634 631 629 627 627 627 627 627 626 626 626 628 630 631 631 630 629 629 629 629 630 631 630 629 627 626 627 629 631 633 637 641 644 646 648 651 653 655 657 658 659 660 661 663 665 667 669 671 673 676 681 686 690 694 698 701 704 705
684 681 679 678 676 674 673 672 670 667 665 662 660 659 657 654 648 641 636 635 634 633 632 632 631 630 630 629 628 626 624 625 625 625 625 625 624 624 624 625 627 629 628 625 623 623 625 626 625 625 624 623 621 622 624 625 628 631 634 636 638 641 644 648 651 653 655 656 656 657 659 662 664 666 669 670 673 677 682 686 690 695 698 701 703
681 678 677 676 674 672 670 669 667 664 662 661 659 656 654 653 651 646 639 634 630 627 625 625 626 626 624 623 623 623 621 621 622 621 621 622 622 622 621 620 620 624 625 622 617 615 616 617 617 617 618 618 618 618 619 620 623 626 628 630 633 636 640 644 647 649 650 652 653 655 657 660 661 663 666 668 672 676 680 683 687 691 695 698 700
677 675 674 673 672 669 667 666 664 662 660 658 656 654 652 649 648 646 642 637 632 627 622 620 621 621 620 618 618 618 618 617 617 617 618 618 620 621 620 616 614 616 619 619 615 611 609 608 609 610 612 613 614 614 615 616 618 621 623 626 629 632 636 640 643 645 647 648 650 652 655 658 660 661 663 666 669 673 676 680 684 688 691 694 697
673 671 670 670 669 667 664 662 661 659 657 655 653 651 649 647 644 641 638 636 633 628 621 617 616 617 616 615 614 614 613 613 613 613 613 615 617 619 616 611 608 609 610 611 612 611 609 607 606 607 608 609 609 610 611 612 614 617 619 622 624 627 630 633 637 641 644 646 647 649 653 655 657 659 661 664 667 670 673 677 681 685 688 691 694
670 668 666 666 666 664 661 658 656 655 653 651 649 647 644 641 639 637 633 630 628 625 620 615 613 613 612 610 610 609 608 608 608 609 609 611 613 613 611 607 605 603 602 603 606 609 609 608 607 606 606 606 606 607 608 608 610 612 614 617 620 622 625 628 631 636 640 642 644 647 649 651 653 655 658 661 665 668 671 674 679 683 687 689 692
666 664 663 662 662 660 657 653 651 650 649 646 644 642 639 636 633 631 629 625 623 621 617 614 612 610 608 607 607 606 604 604 604 604 605 606 607 607 606 604 602 599 596 596 599 603 604 605 606 606 605 604 604 604 605 605 606 607 609 612 616 619 623 625 629 633 636 638 640 643 645 647 650 652 655 657 660 663 667 671 675 680 684 688 691
661 659 658 659 658 656 653 650 647 645 643 641 639 637 634 631 628 626 623 621 618 616 613 610 608 606 605 604 604 603 601 600 599 599 600 601 601 601 601 600 599 596 593 592 593 595 598 600 602 603 603 603 603 603 603 604 604 604 606 608 612 615 619 621 625 629 632 634 637 640 643 645 647 650 653 654 656 659 664 668 672 676 681 685 689
657 654 653 653 653 651 649 646 643 641 639 636 634 632 629 626 624 621 619 616 613 610 608 606 603 602 602 603 602 601 599 596 594 594 595 595 595 596 596 595 594 593 592 591 590 590 591 594 597 598 599 600 600 601 601 601 601 602 603 605 608 611 613 616 619 623 625 629 633 638 640 643 646 649 651 653 654 657 661 665 670 674 679 683 687
654 651 648 649 649 647 645 643 640 637 636 633 629 627 624 621 619 617 614 612 609 606 604 602 599 598 599 600 600 599 596 592 590 590 589 589 589 590 589 589 589 588 588 588 587 586 586 588 591 593 594 595 596 597 598 598 598 598 599 601 604 607 610 613 616 618 620 624 629 634 637 640 643 646 648 650 653 656 660 663 668 673 678 682 686
650 648 645 644 644 643 641 639 636 634 632 629 625 622 619 616 614 612 610 607 605 603 601 598 596 595 596 596 596 595 592 588 586 585 583 583 584 584 583 583 584 584 584 584 584 584 583 583 584 587 588 590 591 592 593 594 594 594 595 597 600 603 607 610 613 615 617 620 625 630 635 638 641 643 646 648 651 655 658 661 666 672 677 681 684
647 644 642 640 639 637 636 633 631 629 627 624 621 618 616 613 610 608 606 603 601 600 598 595 593 592 592 591 591 590 587 584 582 580 579 578 578 578 578 578 578 578 579 579 580 581 580 579 580 581 583 585 586 587 588 589 589 589 591 592 594 598 601 605 608 610 613 617 622 627 631 635 638 641 644 646 649 652 655 659 665 670 675 679 683
643 641 638 635 633 631 629 627 626 624 621 619 617 614 612 610 607 605 602 600 598 596 595 592 590 588 587 586 586 585 582 580 578 576 575 574 573 572 572 573 573 573 574 574 575 576 576 576 576 576 578 580 582 583 584 585 585 586 587 588 590 592 594 597 600 602 605 610 616 622 627 631 635 638 641 645 647 649 652 657 663 668 673 678 682
639 636 634 631 628 626 623 622 621 619 616 615 613 610 608 606 604 601 599 597 594 592 591 588 587 585 583 582 581 579 577 575 574 572 571 570 569 568 568 568 568 569 569 570 570 571 572 572 572 572 573 574 576 578 580 581 583 584 585 586 587 586 587 589 592 595 599 604 609 615 621 626 630 634 639 643 644 646 649 655 662 667 671 676 679
634 632 629 626 624 622 619 618 616 614 612 610 608 605 603 602 600 598 595 593 591 588 586 584 583 581 579 578 576 575 573 571 570 568 567 566 565 564 564 564 564 564 565 565 566 566 567 567 568 568 569 570 571 573 575 577 579 580 582 584 585 585 585 586 588 591 595 599 603 609 615 621 626 631 636 640 642 644 648 655 660 665 670 674 678
630 628 626 623 620 618 616 614 613 611 608 606 603 601 599 597 595 594 592 589 587 585 583 581 579 577 576 574 573 571 569 568 566 564 563 562 561 560 560 560 560 561 561 562 562 562 562 563 563 564 566 567 568 570 572 574 576 578 579 581 583 585 585 585 587 589 592 596 600 604 609 615 622 629 634 636 639 642 648 654 660 665 669 673 677
628 625 623 620 618 615 613 611 610 607 604 602 599 596 594 593 591 590 588 586 584 582 579 577 575 573 572 570 569 567 566 564 562 561 560 558 557 557 557 557 557 558 558 558 558 558 558 559 560 562 563 564 565 567 569 571 574 575 577 578 580 581 582 584 586 589 592 595 598 602 606 612 620 626 630 633 636 641 646 653 659 664 669 673 676
624 622 619 617 615 613 610 608 606 603 601 598 596 593 591 589 587 586 584 582 580 578 576 573 571 569 568 566 565 564 563 561 559 558 557 555 554 554 554 554 554 555 556 556 556 556 556 557 558 560 561 562 563 565 567 570 572 573 574 576 577 579 580 582 584 588 592 595 597 601 605 612 618 623 627 631 635 640 645 651 657 663 667 671 675
621 619 616 614 611 609 607 605 603 600 598 596 593 591 589 586 584 582 581 579 577 575 573 570 568 566 565 563 562 561 560 558 556 555 553 552 552 552 552 552 553 554 555 556 555 555 554 555 557 558 560 560 562 564 567 569 571 573 574 575 577 579 580 582 584 587 591 593 596 600 605 611 617 621 626 630 634 639 645 651 656 661 665 669 673
618 616 613 611 609 607 605 602 600 598 596 593 591 589 587 584 582 580 578 576 575 573 571 568 566 565 563 561 559 558 557 555 554 552 551 550 550 550 551 551 552 554 556 556 556 555 555 555 556 558 559 560 562 563 566 569 571 574 576 577 579 581 583 585 587 589 590 591 595 600 605 611 615 620 625 629 634 639 645 650 655 660 664 667 671